Weather Roundup
Issued by NWS Springfield, MO

Home | Current Version | Previous Version | Text Only | Print | Product List | Glossary On
Versions: 1 2 3 4 5 6 7 8 9 10 11 12 13 14 15 16 17 18 19 20 21 22 23 24 25 26 27 28 29 30 31 32 33 34 35 36 37 38 39 40 41 42 43 44 45 46 47 48 49 50
000
NZUS99 KSGF 041107
HRRSGF

HOURLY WEATHER
NATIONAL WEATHER SERVICE SPRINGFIELD MO
600 AM CDT SAT JUL 04 2015

......SGF CWA......

CITY           SKY/WX    TMP DP  RH WIND       PRES   REMARKS
SPRINGFIELD    MOCLDY    66  62  87 CALM      29.98R
JOPLIN         MOCLDY    67  66  97 NE3       29.97R FOG
WEST PLAINS    CLEAR     65  62  90 CALM      29.99R FOG
ROLLA          CLEAR     60  59  96 CALM      29.98R
OSAGE BEACH    CLEAR     61  57  88 CALM      29.99R
BRANSON        CLOUDY    66  66 100 CALM      29.99R

......SURROUNDING SGF CWA......

CITY           SKY/WX    TMP DP  RH WIND       PRES   REMARKS
CHANUTE        PTCLDY    66  62  87 CALM      29.98R
PARSONS        PTCLDY    67  65  93 CALM      29.98R
COFFEYVILLE    MOCLDY    68  66  93 NE3       29.97R
EMPORIA        CLEAR     59  58  96 CALM      29.98F
GROVE OK       MOCLDY    68  68 100 CALM      29.96S FOG
ROGERS AR      MOCLDY    68  66  94 CALM      29.99R
SILOAM SPRINGS CLOUDY    66  63  88 CALM        N/A
HARRISON AR    FOG       67  67 100 CALM      29.99R VSB<1/4
NEAR YELLVILLE MOCLDY    66  64  94 CALM      29.95R VSB 1/2

......KANSAS AND MISSOURI......

CITY           SKY/WX    TMP DP  RH WIND       PRES   REMARKS
KANSAS CTY INT PTCLDY    59  57  93 CALM      30.00R FOG
DOWNTOWN KC    CLEAR     64  61  90 NW3       29.99R
COLUMBIA       CLEAR     62  59  90 CALM      29.99R
SEDALIA        CLEAR     62  59  90 CALM      30.00R
ST JOSEPH      PTCLDY    57  56  96 CALM      29.99S
ST LOUIS       CLEAR     70  64  83 CALM      29.97R HAZE
SPIRIT OF STL  CLEAR     64  63  96 CALM      29.96R FOG
KIRKSVILLE     FOG       56  54  93 CALM      30.00R VSB 1
WICHITA        PTCLDY    67  62  84 CALM      29.99R
TOPEKA         CLEAR     60  59  96 CALM      29.99S FOG
OLATHE         CLEAR     62  58  86 CALM      29.99R

......TENNESSEE......

CITY           SKY/WX    TMP DP  RH WIND       PRES   REMARKS
MEMPHIS        CLOUDY    73  70  90 SW6       29.96R
NASHVILLE      CLOUDY    71  70  96 CALM      29.97R

......ARKANSAS.......

CITY           SKY/WX    TMP DP  RH WIND       PRES   REMARKS
FAYETTEVILLE   FOG       64  64 100 CALM      29.98R VSB 1/4
FT SMITH       FOG       70  68  93 CALM      29.94R VSB 1/4
LITTLE ROCK    CLOUDY    71  67  87 CALM      29.95R

......OKLAHOMA.......

CITY           SKY/WX    TMP DP  RH WIND       PRES   REMARKS
TULSA          CLEAR     69  68  96 N6        29.94S
PONCA CITY     CLEAR     65  63  93 NE3       29.96S FOG
MCALESTER      PTCLDY    70  68  93 CALM      29.94R
OKLAHOMA CITY  PTCLDY    70  69  97 SW3       29.95R

......IOWA............

CITY           SKY/WX    TMP DP  RH WIND       PRES   REMARKS
DES MOINES     PTCLDY    61  55  81 CALM      29.99R
QUAD CITIES    CLEAR     56  53  90 CALM      29.98R FOG

......ILLINOIS........

CITY           SKY/WX    TMP DP  RH WIND       PRES   REMARKS
QUINCY         CLEAR     62  59  90 NE3       29.97R FOG
CHICAGO        PTCLDY    60  55  83 W6        29.97R




USA.gov is the U.S. government's official web portal to all federal, state and local government web resources and services.